Location: Agendoh
(31.0664°N, 8.9343°W)
Time: 09:09:52
(UTC+00:00)

Cosmos 1515 Rocket - Pass Details

Date: 06 December 2021
Orbit: 605 x 630 km, 82.5° (Epoch: 24 January)

Event Time Altitude Azimuth Distance (km) Brightness Sun altitude
Rises 06:45:49 0° 345° (NNW) 2,876 6.6 -7.6°
Reaches altitude 10° 06:48:08 10° 338° (NNW) 1,964 5.7 -7.1°
Maximum altitude 06:52:12 41° 268° (W) 878 3.9 -6.3°
Drops below altitude 10° 06:56:16 10° 198° (SSW) 1,945 6.2 -5.5°
Sets 06:58:33 0° 191° (S) 2,844 7.1 -5.1°
